Powrót do katalogu

STARLINK-32783

AktywnyŁącznośćVLEO
NORAD 62606·PAYLOAD·🇺🇸 United States

Wystrzelony Jan 13, 2025 z Cape Canaveral Space Force Station

Loading…

Następne Przeloty (najbliższe 24 godziny)

TLE

ŚwieżeSource: CelesTrak SupGP

Epoka: Sep 14, 2026, 20:46 UTC

1 62606C 25008V   26257.86576389 -.00010776  00000+0 -39038-3 0  2574
2 62606  43.0003 289.5102 0001525 264.4295 213.7746 15.27576893    18

Śledź STARLINK-32783 w czasie rzeczywistym z AllMySat

Download on the App Store